This is the latest recevied weather packets stored in our database for station/object KA3WVU. If no packets are shown the sender has not sent any weather packets the latest 10 day(s).
| Time | Temp. | Humidity | Pressure | Rain* | Wind** | Luminosity | Snow |
|---|---|---|---|---|---|---|---|
| 1777466139 | 9.44° C | 99% | 1011.8 hPa | 0 mm | - | 16 W/m² | - |
| 1777465836 | 9.44° C | 99% | 1012 hPa | 0 mm | - | 25 W/m² | - |
| 1777465531 | 9.44° C | 99% | 1011.9 hPa | 0 mm | - | 26 W/m² | - |
| 1777465226 | 9.44° C | 99% | 1011.9 hPa | 0 mm | - | 37 W/m² | - |
| 1777464916 | 9.44° C | 99% | 1011.9 hPa | 0 mm | - | 37 W/m² | - |
| 1777464611 | 9.44° C | 99% | 1012.1 hPa | 0 mm | - | 36 W/m² | - |
| 1777464308 | 9.44° C | 99% | 1012.1 hPa | 0 mm | - | 36 W/m² | - |
| 1777464003 | 9.44° C | 99% | 1011.8 hPa | 0 mm | - | 36 W/m² | - |
| 1777463698 | 9.44° C | 99% | 1011.9 hPa | 0 mm | - | 29 W/m² | - |
| 1777463393 | 9.44° C | 99% | 1011.9 hPa | 0 mm | - | 30 W/m² | - |
| 1777463089 | 9.44° C | 99% | 1012 hPa | 0 mm | - | 28 W/m² | - |
| 1777462784 | 9.44° C | 99% | 1012.3 hPa | 0 mm | - | 30 W/m² | - |
| 1777462479 | 9.44° C | 99% | 1012.1 hPa | 0 mm | - | 26 W/m² | - |
| 1777462177 | 9.44° C | 99% | 1012.1 hPa | 0 mm | - | 19 W/m² | - |
| 1777461873 | 9.44° C | 99% | 1012.1 hPa | 0 mm | - | 18 W/m² | - |
| 1777461570 | 9.44° C | 99% | 1012 hPa | 0 mm | - | 18 W/m² | - |
| 1777461260 | 9.44° C | 99% | 1012.1 hPa | 0 mm | - | 16 W/m² | - |
| 1777460956 | 9.44° C | 99% | 1012 hPa | 0 mm | - | 15 W/m² | - |
| 1777460652 | 9.44° C | 99% | 1011.9 hPa | 0 mm | - | 11 W/m² | - |
| 1777460347 | 9.44° C | 99% | 1012.3 hPa | 0 mm | - | 11 W/m² | - |
| 1777460044 | 9.44° C | 99% | 1012.1 hPa | 0 mm | - | 8 W/m² | - |
| 1777459741 | 9.44° C | 99% | 1011.9 hPa | 0 mm | - | 8 W/m² | - |
| 1777459437 | 8.89° C | 99% | 1012 hPa | 0 mm | - | 8 W/m² | - |
| 1777459135 | 8.89° C | 99% | 1012.1 hPa | 0 mm | - | 4 W/m² | - |
| 1777458831 | 9.44° C | 99% | 1012.1 hPa | 0 mm | - | 3 W/m² | - |
* Rain latest hour (hover to see other rain measurements)
** Current wind speed in m/s (hover to see current wind gust speed)